Weather in Kineshma

Russia / Ivanovo Oblast     57°26′33″N   42°10′08″E
temp.,
°C
wind,
m/s
gust,
m/s
humid.,
%
clouds,
%
prec.,
mm/h
press.,
hPa
HPBL,
m
23 october, sat
sat2300:00+6wsw61370100 0.0 9981055
03:00+5wsw6137693 0.0 999986
06:00+4sw6137753 0.0 1000757
09:00+5sw61174100 0.0 10011203
12:00+6sw51174100 0.0 10021106
15:00+6sw597699 0.0 1003971
18:00+6sw4981100 0.1 1003850
21:00+4wsw4107989 0.2 1004537
24 october, sun
sun2400:00+4wsw3789100 0.1 1004765
03:00+4w3891100 0.3 1006711
06:00+4w4891100 0.1 1007655
09:00+3wsw4896100 0.0 1007604
12:00+3wsw3897100 0.4 1008612
15:00+3w3697100 0.9 1009775
18:00+1nw41097100 1.0 1011546
21:000nnw7128796 1.8 1015963
25 october, mon
mon2500:00−1nnw6118475 0.0 1018787
03:00−2nnw5128812 0.0 1021553
06:00−2nw410885 0.0 1023414
09:00−1nw368060 0.0 1025353
12:00+2wnw3462100 0.0 1025730
15:00+2wsw3765100 0.0 1025834
18:00+1sw41072100 0.0 1024620
21:000sw51396100 0.5 1022661
26 october, tue
tue2600:000sw61494100 1.1 1020676
03:00+1wsw51284100 1.1 1019620
06:00+1wsw51287100 0.0 1018559
09:00+2wsw51288100 0.0 1018515
12:00+4wsw51179100 0.0 1017553
15:00+4wsw41078100 0.0 1017572
18:00+2wsw41285100 0.0 1017402
21:00+1sw4109082 0.0 1017319
27 october, wed
wed2700:00+1sw31092100 0.0 1016299
03:00+1sw41090100 0.0 1015340
06:000sw41090100 0.0 1014333
09:00+1sw41286100 0.0 1013446
12:00+4sw51277100 0.0 1011590
15:00+5sw51275100 0.0 1009747
18:00+3wsw51197100 0.4 1009832
21:00+4wsw51193100 0.6 1009642